Weather in Wenzhou

China     27°58′51″N   120°39′52″E
temp.,
°C
wind,
m/s
gust,
m/s
humid.,
%
clouds,
%
prec.,
mm/h
press.,
hPa
HPBL,
m
27 september, mon
mon2723:00+23nne017896 0.0 101555
02:00+22nw118346 0.0 101356
05:00+21nw12875 0.0 101265
08:00+25nw12665 0.0 1014277
11:00+31ene12400 0.0 1012942
14:00+31ese33465 0.0 10101157
17:00+27ese34726 0.0 1011611
20:00+25e138415 0.0 1012308
28 september, tue
tue2823:00+24ne118810 0.1 101386
02:00+24n11896 0.1 101253
05:00+23nnw11915 0.0 101150
08:00+26nw11760 0.0 1012400
11:00+30ese225430 0.0 10111015
14:00+29ese435997 0.0 1009985
17:00+27ese337361 0.0 1009555
20:00+25e127974 0.0 1011280
29 september, wed
wed2923:00+24e11825 0.0 101190
02:00+23nw11860 0.0 100946
05:00+22nw01890 0.0 100843
08:00+25sw11730 0.0 1009378
11:00+31sse22480 0.0 1008831
14:00+31se32480 0.0 1006967
17:00+28ese33600 0.0 1006384
20:00+26ese227317 0.2 1009263
30 september, thu
thu3023:00+25e117931 0.1 1010122
02:00+24n118224 0.1 100855
05:00+24wnw118332 0.1 100954
08:00+26w117272 0.1 1010409
11:00+31sse115738 0.3 10091110
14:00+28se326952 1.6 1008745
17:00+26se238298 0.8 1008383
20:00+25ese2290100 1.8 101090
1 october, fri
fri123:00+24e228953 0.7 1010110
02:00+24sse119033 0.9 101063
05:00+23e009110 0.3 101050
08:00+25ene128513 0.4 1012347
11:00+28ese226645 0.1 10111025
14:00+27se326723 0.2 1009785
17:00+26ese337439 0.0 1010651
20:00+24ese237537 0.0 1012560